Погода в Гнетово

Россия / Рязанская область     54°38′42″N   39°58′54″E
темп.,
°C
ветер,
м/с
пор.,
м/с
влажн.,
%
обл.,
%
осадки,
мм/ч
давл.,
гПа
погр.,
м
26 февраля, пт
пт2600:000з3796100 0.0 1013156
03:00+1зюз3710099 0.1 1012203
06:00+2зюз411100100 0.9 1010308
09:00+2з51399100 1.5 1008460
12:00+2з513100100 0.1 1007498
15:00+2зюз51399100 0.1 1005416
18:00+2з51598100 0.2 1003618
21:00+2зсз51388100 0.3 1004932
27 февраля, сб
сб2700:00+2з61487100 0.0 1002871
03:00+1з6149099 0.1 1002789
06:000зсз61297100 0.1 1000853
09:00+1з61292100 0.1 1001892
12:00−3ссз51294100 0.8 1002621
15:00−6ссз5986100 0.9 1004808
18:00−9ссз51086100 0.1 1007768
21:00−11с41090100 0.1 1011612
28 февраля, вс
вс2800:00−12ссз41091100 0.0 1012554
03:00−12ссз3993100 0.1 1014448
06:00−13ссз389497 0.0 1015380
09:00−12ссз389096 0.0 1016451
12:00−8ссз3687100 0.0 1017568
15:00−6ссз3786100 0.1 1018747
18:00−8ссз2495100 0.1 1018111
21:00−9с239694 0.1 102066
1 марта, пн
пн100:00−11с229557 0.0 102236
03:00−12с229662 0.0 102327
06:00−13ссз229730 0.0 102521
09:00−10сз129436 0.0 102699
12:00−5зсз238682 0.0 1026494
15:00−3з358791 0.1 1026592
18:00−4з3894100 0.1 1025351
21:00−5зюз3893100 0.1 1024253
2 марта, вт
вт200:00−4зюз4995100 0.1 1022341
03:00−2зюз51295100 0.3 1019471
06:000з51197100 0.5 1017545
09:00+1зсз51298100 1.0 1015633
12:00+1зсз61298100 0.3 1013647
15:00+1зсз51195100 0.4 1012716
18:00+1сз41097100 0.2 1012720
21:00−1сз41292100 0.3 1013536